Caldwell, NJ

4:26 PM EDT on September 15, 2019 (GMT -0400)
Essex County

Weather History for KCDW - July, 2019

Change the Weather History Date:

Sunday, July 21, 2019

  Actual Average Record
Temperature  
Mean Temperature 90 °F -  
Max Temperature 100 °F 85 °F 100 °F (1980)
Min Temperature 80 °F 63 °F 50 °F (1951)
Cooling Degree Days 25    
Growing Degree Days 40 (Base 50)    
Moisture  
Dew Point 74 °F    
Average Humidity 64    
Maximum Humidity 85    
Minimum Humidity 42    
Precipitation  
Precipitation 0.00 in - - ()
Sea Level Pressure  
Sea Level Pressure 29.82 in    
Wind  
Wind Speed 4 mph (West)    
Max Wind Speed 12 mph    
Max Gust Speed 18 mph    
Visibility 10 miles    
Events Rain , Thunderstorm    
Averages and records for this station are not official NWS values.
T = Trace of Precipitation, MM = Missing Value Source: NWS Daily Summary

Daily Weather History Graph

Daily Weather History Graph

Search for Another Location

Airport or City:

Astronomy

Jul. 21, 2019 Rise Set
Actual Time 5:43 AM EDT 8:23 PM EDT
Civil Twilight 5:11 AM EDT 8:55 PM EDT
Nautical Twilight 4:31 AM EDT 9:35 PM EDT
Astronomical Twilight 3:45 AM EDT 10:20 PM EDT
Moon 11:15 PM EDT (7/21) 10:02 AM EDT (7/21)
Length of Visible Light 15h 44m
Length of Day
14h 40m
Waning Gibbous, 80% of the Moon is Illuminated
Jul 21
Waning Gibbous
Jul 24
Last Quarter
Jul 31
New
Aug 7
First Quarter
Aug 15
Full

Hourly Weather History & Observations

Time (EDT) Temp. Heat Index Dew Point Humidity Pressure Visibility Wind Dir Wind Speed Gust Speed Precip Events Conditions
12:53 AM 84.9 °F 94.1 °F 75.9 °F 74% 29.81 in 10.0 mi Calm Calm - N/A   Clear
1:53 AM 84.0 °F 92.6 °F 75.9 °F 76% 29.81 in 10.0 mi SSW 3.5 mph - N/A   Clear
2:53 AM 82.9 °F 90.8 °F 75.9 °F 79% 29.80 in 10.0 mi Calm Calm - N/A   Clear
3:53 AM 82.9 °F 90.8 °F 75.9 °F 79% 29.80 in 9.0 mi SSW 3.5 mph - N/A   Clear
4:53 AM 82.0 °F 89.4 °F 75.9 °F 82% 29.79 in 9.0 mi Calm Calm - N/A   Clear
5:53 AM 81.0 °F 87.3 °F 75.9 °F 85% 29.79 in 7.0 mi SSW 3.5 mph - N/A   Clear
6:53 AM 82.0 °F 89.4 °F 75.9 °F 82% 29.84 in 8.0 mi Calm Calm - N/A   Clear
7:53 AM 84.9 °F 94.1 °F 75.9 °F 74% 29.84 in 9.0 mi Variable 4.6 mph - N/A   Mostly Cloudy
8:53 AM 90.0 °F 100.2 °F 75.0 °F 61% 29.84 in 10.0 mi WNW 9.2 mph - N/A   Partly Cloudy
9:53 AM 91.9 °F 103.2 °F 75.0 °F 58% 29.83 in 10.0 mi NW 8.1 mph - N/A   Clear
10:53 AM 91.9 °F 103.2 °F 75.0 °F 58% 29.83 in 10.0 mi NW 8.1 mph - N/A   Clear
11:53 AM 95.0 °F 108.2 °F 75.9 °F 54% 29.82 in 10.0 mi Variable 4.6 mph - N/A   Clear
12:53 PM 96.1 °F 108.6 °F 75.0 °F 51% 29.81 in 10.0 mi Variable 6.9 mph - N/A   Clear
1:53 PM 98.1 °F 109.5 °F 73.9 °F 46% 29.80 in 10.0 mi West 9.2 mph 18.4 mph N/A   Partly Cloudy
2:53 PM 97.0 °F 109.3 °F 75.0 °F 49% 29.79 in 10.0 mi WSW 6.9 mph - N/A   Mostly Cloudy
3:53 PM 99.0 °F 109.3 °F 73.0 °F 43% 29.78 in 10.0 mi West 11.5 mph - N/A   Partly Cloudy
4:53 PM 99.0 °F 108.5 °F 72.0 °F 42% 29.77 in 10.0 mi WNW 9.2 mph - N/A   Clear
5:53 PM 99.0 °F 108.5 °F 72.0 °F 42% 29.78 in 10.0 mi West 9.2 mph - N/A   Clear
6:20 PM 97.0 °F 107.0 °F 73.0 °F 46% 29.78 in 10.0 mi NW 9.2 mph - N/A Thunderstorm Partly Cloudy
6:53 PM 91.9 °F 95.9 °F 68.0 °F 45% 29.81 in 10.0 mi NNW 5.8 mph - N/A   Scattered Clouds
7:53 PM 86.0 °F 93.8 °F 73.9 °F 67% 29.83 in 10.0 mi SW 5.8 mph - 0.00 in   Clear
8:53 PM 84.9 °F 91.4 °F 73.0 °F 67% 29.84 in 10.0 mi NW 3.5 mph - N/A   Clear
9:53 PM 84.0 °F 89.6 °F 72.0 °F 67% 29.86 in 10.0 mi Calm Calm - N/A   Mostly Cloudy
10:53 PM 82.0 °F 87.4 °F 73.0 °F 74% 29.87 in 10.0 mi Calm Calm - 0.00 in   Scattered Clouds
11:14 PM 82.0 °F 86.7 °F 72.0 °F 71% 29.86 in 10.0 mi Calm Calm - N/A Thunderstorm Thunderstorm
11:26 PM 82.0 °F 87.4 °F 73.0 °F 74% 29.86 in 9.0 mi SSW 4.6 mph - 0.00 in Rain Light Rain
11:53 PM 80.1 °F 85.1 °F 75.0 °F 85% 29.85 in 10.0 mi Calm Calm - 0.00 in   Partly Cloudy